Historyczne dane pomiarowe

Dodano dane terminowe – wersja testowa.

Dane z okresu 1951-2019

Wersja bazy: 1.34 [2019-03-16, lista zmian], aktualizacja planowana na 2019-04-15

Dane meteo z obszaru Polski uzyskane na podstawie danych udostępnionych przez Instytut Meteorologii i Gospodarki Wodnej – Państwowy Instytut Badawczy.

 

Wybierz Datę:    

       

TemperaturaWilgotnośćWiatrCiśnienieOpadyŚniegCzas trwania zjawisk
 Stacja t tx tn tng RH VA  wxwx mslp ppp RRR   cm mm wxwxwxwxwxwxwx
2019-06-19 19.3 25.6 15.0- 85.5- 6.7----- 5.8------------
2019-06-18 16.0 22.1 8.5- 88.5- 5.7 1.7---- 2.0------------
2019-06-17 16.7 19.2 15.0- 83.8- 6.0 3.3---- 0.0------------
2019-06-16 21.1 29.5 15.6- 71.5- 3.3 1.7---- 8.9------------
2019-06-15 22.8 30.6 14.5- 67.3- 2.3 1.0---- 0.0------------
2019-06-14 22.1 28.6 14.4- 76.0- 4.0 1.7---- 0.2------------
2019-06-13 22.2 29.1 13.5- 63.0- 1.0 2.0---- 0.0------------
2019-06-12 21.8 28.1 13.0- 63.3- 1.7 2.7---- 0.0------------
2019-06-11 21.5 27.1 12.7- 55.5- 1.0 2.7---- 0.0------------
2019-06-10 19.8 27.2 10.9- 77.3- 2.0 1.3---- 0.0------------
2019-06-09 18.7 23.0 15.3- 71.0- 3.3 2.7---- 0.0------------
2019-06-08 18.1 26.0 11.5- 81.3- 7.3 2.3---- 0.5------------
2019-06-07 16.6 22.1 9.9- 87.3- 5.0 1.0---- 0.6------------
2019-06-06 16.3 21.6 8.9- 70.8- 2.7 2.3---- 0.7------------
2019-06-05 17.5 23.6 10.3- 72.8- 3.0 1.7---- 0.0------------
2019-06-04 18.4 24.2 10.8- 74.0- 5.0 1.7---- 0.0------------
2019-06-03 17.2 23.9 8.5- 75.3- 3.0 1.7---- 0.0------------
2019-06-02 16.8 22.7 9.6- 76.3- 2.3 1.3---- 0.0------------
2019-06-01 12.7 21.2 3.8- 81.0- 4.0 1.3---- 0.0------------
2019-05-31 12.0 17.4 7.0- 83.0- 7.0 1.3---- 0.0------------
2019-05-30 9.0 10.5 8.0- 93.0- 7.7 3.0---- 8.0------------
2019-05-29 11.4 14.5 8.0- 89.8- 7.7 2.7---- 9.8------------
2019-05-28 15.6 19.2 13.4- 82.8- 6.7 3.3---- 0.7------------
2019-05-27 14.6 21.0 7.3- 79.5- 5.7 2.3---- 0.1------------
2019-05-26 13.6 22.2 6.2- 77.3- 4.3 0.7---- 0.0------------
2019-05-25 14.4 19.3 10.3- 77.0- 4.0 2.3---- 0.0------------
2019-05-24 10.8 13.7 8.3- 93.5- 8.0 2.3---- 0.0------------
2019-05-23 10.8 12.7 9.4- 93.3- 8.0 2.7---- 19.9------------
2019-05-22 11.7 14.1 9.6- 95.3- 8.0 1.0---- 52.6------------
2019-05-21 10.8 15.9 6.6- 94.0- 8.0 1.0---- 31.6------------
2019-05-20 14.7 18.9 9.9- 73.5- 5.3 3.7---- 0.0------------
2019-05-19 14.7 21.6 6.0- 81.3- 1.7 2.7---- 0.9------------
2019-05-18 14.7 21.4 6.8- 78.3- 3.0 2.0---- 0.0------------
2019-05-17 12.8 17.8 9.6- 84.3- 6.7 2.7---- 0.0------------
2019-05-16 10.9 15.6 7.6- 88.5- 7.7 2.0---- 4.2------------
2019-05-15 6.3 8.0 4.0- 93.5- 8.0 2.3---- 7.6------------
2019-05-14 2.7 5.8 0.1- 92.3- 8.0 3.3---- 20.2-- 1---------
2019-05-13 6.6 10.5 4.6- 84.0- 8.0 3.7---- 5.0------------
2019-05-12 11.1 19.1 5.1- 84.3- 6.7 2.7---- 1.3------------
2019-05-11 11.1 17.1 5.6- 79.0- 5.7 1.7---- 0.7------------
2019-05-10 9.4 14.2 5.4- 86.8- 7.3 2.0---- 10.4------------
2019-05-09 7.6 9.8 5.8- 73.0- 7.3 3.0---- 3.2------------
2019-05-08 5.8 12.3 -2.0- 72.5- 1.7 1.7---- 0.0------------
2019-05-07 5.8 9.7 1.5- 64.8- 6.0 3.3---- 0.0------------
2019-05-06 2.5 4.3 1.6- 91.0- 8.0 3.7---- 3.9------------
2019-05-05 4.3 8.1 1.5- 93.0- 8.0 4.0---- 8.6------------
2019-05-04 6.3 10.8 3.0- 88.0- 6.0 1.7---- 0.6------------
2019-05-03 8.3 14.2 3.7- 83.5- 7.3 1.7---- 2.1------------
2019-05-02 11.6 18.2 4.3- 59.8- 4.0 2.7---- 0.0------------
2019-05-01 9.8 15.1 6.7- 77.5- 4.3 3.3---- 1.1------------
2019-04-30 8.8 10.7 7.5- 94.8- 8.0 2.3---- 8.0------------
2019-04-29 8.0 9.7 5.4- 88.8- 8.0 1.3---- 3.4------------
2019-04-28 7.7 9.4 6.6- 88.8- 8.0 3.0---- 16.2------------
2019-04-27 12.7 20.6 8.8- 85.8- 8.0 2.3---- 19.7------------
2019-04-26 16.7 24.0 6.3- 49.0- 3.0 3.7---- 0.0------------
2019-04-25 14.8 20.6 7.7- 63.5- 1.7 3.3---- 0.0------------
2019-04-24 10.5 13.3 7.5- 79.0- 6.0 4.0---- 2.6------------
2019-04-23 8.8 13.7 4.8- 72.8- 6.7 3.7---- 0.3------------
2019-04-22 7.4 13.5 2.7- 83.3- 7.3 1.7---- 3.1------------
2019-04-21 7.5 16.1 0.4- 60.3- 3.7 2.0---- 0.0------------
186.4 ms

 

Źródłem pochodzenia danych jest Instytut Meteorologii i Gospodarki Wodnej – Państwowy Instytut Badawczy. Dane Instytutu Meteorologii i Gospodarki Wodnej – Państwowego Instytutu Badawczego zostały przetworzone.

Dane źródłowe można odnaleźć na stronie https://dane.imgw.pl